{"data":{"norad_id":68612,"epoch":"2026-09-20T00:19:34.032576Z","epoch_age_seconds":85921,"freshness":"FRESH","line1":"1 68612U 26073L   26263.01358834  .00007271  00000+0  22717-3 0  9990","line2":"2 68612  97.2855 101.0009 0001486  94.4070 265.7342 15.33466481 25664","mean_motion":15.33466481,"eccentricity":0.0001486,"inclination_deg":97.2855,"raan_deg":101.0009,"arg_perigee_deg":94.407,"mean_anomaly_deg":265.7342,"bstar":0.00022717,"rev_number":2566,"period_min":93.904889206378,"perigee_km":464.46230150471,"apogee_km":466.49622425804,"semimajor_km":6843.6162628814,"source":"CELESTRAK","updated_at":"2026-09-20T09:00:43.944092Z"}}